Location: Nairn
(57.5833°N, 3.8667°W)
Time: 11:42:31
(UTC+00:00)

SR - Visible Passes

Search period start: 30 November 2020 00:00
Search period end: 10 December 2020 00:00
Orbit: 579 x 876 km, 66.7° (Epoch: 29 November)

Date Brightness Start Highest point End Pass type
(mag) Time Alt. Az. Time Alt. Az. Time Alt. Az.
30 Nov ? 17:08:50 10° ESE 17:09:42 10° ESE 17:09:53 10° ESE visible
30 Nov ? 18:46:15 10° SSW 18:49:19 39° S 18:49:19 39° S visible
30 Nov ? 20:28:16 10° WSW 20:28:45 13° WSW 20:28:45 13° WSW visible
01 Dec ? 17:57:10 10° S 18:01:04 30° ESE 18:01:20 30° ESE visible
01 Dec ? 19:38:16 10° WSW 19:40:46 33° WSW 19:40:46 33° WSW visible
02 Dec ? 17:08:42 10° SSE 17:11:44 18° ESE 17:13:18 15° E visible
02 Dec ? 18:48:30 10° SW 18:52:44 75° S 18:52:44 75° S visible
02 Dec ? 20:31:09 10° W 20:32:09 16° W 20:32:09 16° W visible
03 Dec ? 17:59:04 10° SSW 18:03:22 49° SE 18:04:37 38° E visible
03 Dec ? 19:41:01 10° WSW 19:44:02 37° W 19:44:02 37° W visible
04 Dec ? 17:10:02 10° S 17:13:54 29° ESE 17:16:27 18° ENE visible
04 Dec ? 18:51:02 10° SW 18:55:34 71° NW 18:55:52 69° N visible
04 Dec ? 20:34:06 10° W 20:35:17 17° WNW 20:35:17 17° WNW visible
05 Dec ? 16:21:39 10° SSE 16:24:35 17° ESE 16:27:39 10° ENE visible
05 Dec ? 18:01:18 10° SW 18:05:48 76° SE 18:07:39 37° NE visible
05 Dec ? 19:43:53 10° W 19:47:04 33° WNW 19:47:04 33° WNW visible
06 Dec ? 17:11:53 10° SSW 17:16:11 46° SE 17:19:24 19° ENE visible
06 Dec ? 18:53:45 10° WSW 18:58:16 51° NNW 18:58:48 49° N visible
06 Dec ? 20:37:02 10° WNW 20:38:13 16° WNW 20:38:13 16° WNW visible
07 Dec ? 16:22:54 10° S 16:26:44 28° ESE 16:30:49 10° ENE visible
07 Dec ? 18:03:48 10° SW 18:08:22 74° NW 18:10:31 33° NE visible
07 Dec ? 19:46:50 10° W 19:49:55 29° NW 19:49:55 29° NW visible
08 Dec ? 17:14:05 10° SW 17:18:36 73° SE 17:22:11 18° NE visible
08 Dec ? 18:56:37 10° W 19:01:03 40° NNW 19:01:36 39° N visible
08 Dec ? 20:39:57 10° WNW 20:41:00 15° NW 20:41:00 15° NW visible
09 Dec ? 16:24:42 10° SSW 16:29:00 44° ESE 16:33:40 10° NE visible
09 Dec ? 18:06:29 10° WSW 18:11:02 53° NNW 18:13:15 30° NNE visible
09 Dec ? 19:49:46 10° WNW 19:52:38 26° NW 19:52:38 26° NW visible
